Regional Weather Roundup
Issued by NWS Newport/Morehead, NC

Current Version | Previous Version | Graphics & Text | Print | Product List | Glossary On
Versions: 1 2 3 4 5 6 7 8 9 10 11 12 13 14 15 16 17 18 19 20 21 22 23 24 25 26 27 28 29 30 31 32 33 34 35 36 37 38 39 40 41 42 43 44 45 46 47 48 49 50
000 ASUS42 KMHX 180013 RWRMHX WEATHER ROUNDUP FOR EASTERN NORTH CAROLINA NATIONAL WEATHER SERVICE NEWPORT/MOREHEAD CITY NC 800 PM EDT TUE OCT 17 2017 NOTE: "FAIR" INDICATES FEW OR NO CLOUDS BELOW 12,000 FEET WITH NO SIGNIFICANT WEATHER AND/OR OBSTRUCTIONS TO VISIBILITY NCZ015>017-031-032-045>047-102-103-180100- NORTH COAST CITY SKY/WX TMP DP RH WIND PRES REMARKS EDENTON CLEAR 53 44 73 CALM 30.32R ELIZABETH CITY CLEAR 55 45 68 N12 30.31R KITTY HAWK CLOUDY 58 44 60 NE6 30.28R MANTEO CLOUDY N/A N/A N/A NE8 30.29S $$ NCZ045>047-081-094-103-104-180100- CENTRAL COAST CITY SKY/WX TMP DP RH WIND PRES REMARKS FRISCO CLOUDY 61 50 67 NE8 30.26R $$ NCZ095-097-098-100-101-180100- SOUTHERN COAST CITY SKY/WX TMP DP RH WIND PRES REMARKS BEAUFORT CLOUDY 54 48 80 N7 30.28R CEDAR ISLAND NOT AVBL JACKSONVILLE CLEAR 57 48 72 NE9 30.28R PINEY ISLAND N/A N/A N/A N/A N12 30.28R WILMINGTON CLEAR 53 46 77 E3 30.28R $$ NCZ011>013-027>030-043-044-078>080-089-090>093-098-180100- COASTAL PLAIN CITY SKY/WX TMP DP RH WIND PRES REMARKS AHOSKIE CLEAR 50 45 82 CALM 30.32R CLINTON CLEAR 53 46 77 CALM 30.30R ELIZABETHTOWN NOT AVBL GOLDSBORO CLEAR 52 45 76 N5 30.28R GREENVILLE CLEAR 50 45 81 CALM 30.31R HAVELOCK PTCLDY 57 46 66 NE10 30.30R KENANSVILLE CLEAR 48 45 87 CALM 30.30R KINSTON CLEAR 50 45 81 CALM 30.31R NEW BERN CLEAR 54 45 71 E5 30.31R RICHLANDS CLEAR 50 48 93 VRB3 30.29R ROCKY MOUNT CLEAR 49 46 90 CALM 30.31R WASHINGTON CLEAR 53 44 69 NE3 30.31R WHITEVILLE CLEAR 55 47 73 CALM 30.27R $$ AMZ130-135-150-152-154-156-158-170-250-252-270-ANZ085-086-088-633-658-670-180100- MARINE OBSERVATIONS STATION/POSITION TIME TEMP WIND PRES WAVE SWELL AIR SEA DIR/SP/G HT/PER HT/PER (UTC) (F) (DEG/KT/KT) (MB) (FT/S) (FT/S) CHESAPEAKE LIGHT NOT AVBL 64 E VA BEACH 2350 60 67 20/ 14/ 17 1025.7 5/ 7 3/ 7 DUCK 2336 60 68 40/ 17/ 20 1025.4 2 E DUCK 2330 71 N/A 5/ 7 2/11 OREGON INLET 2336 60 66 10/ 10/ 16 1025.2 13E OREGON INLT 2348 71 N/A 6/ 8 5/ 8 HATTERAS CG 2336 62 68 30/ 16/ 20 1024.5 DIAMOND BUOY 2350 65 81 20/ 17/ 23 1023.7 7/ 9 3/ 9 CAPE LOOKOUT 0000 60 10/ 13/ 15 1024.6 BEAUFORT LAB 2336 58 71 20/ 9/ 12 1025.6 30 SE NEW RVR IN 2308 64 50/ 19/ 25 1024.0 30 SE NEW RVR IN NOT AVBL 27 SE WRIGHTSVLE 2308 65 77 60/ 17/ 25 1023.8 5 SE WRIGHTSVLE 2308 64 75 50/ 16/ 25 1024.5 225 S CAPE HAT 2350 74 79 40/ 25/ 31 1018.3 12/ 9 41 SE CHARLESTON 0000 69 80 40/ 23/ 31 1022.3 $$

USA.gov is the U.S. government's official web portal to all federal, state and local government web resources and services.